Location: Bruchhof
(51.8738°N, 9.9256°E)
Time: 00:56:35
(UTC+00:00)

Daily predictions for brighter satellites

Satellite Brightness Start Highest point End
(mag) Time Altitude Azimuth Time Altitude Azimuth Time Altitude Azimuth
Cosmos 1943 4.4 00:03:21 10° NNW 00:08:43 42° NE 00:14:02 10° ESE
Cosmos 2227 Rocket 2.2 00:05:20 20° SSW 00:09:21 81° ESE 00:15:03 10° NNE
IDEFIX/ARIANE 42P 4.3 00:05:47 10° NE 00:09:57 24° E 00:14:06 10° SE
Cosmos 1892 3.3 00:09:05 22° SW 00:10:57 42° WNW 00:14:20 10° N
Cosmos 990 Rocket 4.0 00:08:24 22° S 00:11:46 69° ESE 00:16:53 10° NNE
Cosmos 332 Rocket 3.9 00:09:47 20° SSW 00:13:10 77° WNW 00:18:06 10° NNE
CENTAUR R/B 2.7 00:12:18 20° SSW 00:16:23 60° SE 00:23:25 10° NE
CZ-2C R/B 4.1 00:12:16 10° SE 00:17:02 35° ENE 00:21:54 10° N
CZ-2D R/B 4.1 00:13:29 10° NE 00:17:24 20° E 00:21:16 10° SE
GEOS 3 Rocket 3.6 00:12:46 10° NE 00:17:59 82° SE 00:22:02 17° SW
H-2A R/B 3.0 00:17:03 10° N 00:21:03 39° WNW 00:24:02 16° SW
Meteor 1-21 Rocket 4.3 00:18:17 19° S 00:22:30 79° E 00:28:12 10° NNE
Cosmos 1538 Rocket 4.1 00:18:22 10° NNW 00:23:28 57° WSW 00:27:12 18° S
Cosmos 1975 Rocket 3.4 00:21:39 19° S 00:24:37 58° E 00:28:57 10° NNE
SL-4 R/B 3.4 00:23:25 10° W 00:26:25 20° SW 00:26:25 20° SW
Cosmos 2074 Rocket 4.4 00:24:31 17° SSW 00:29:14 54° WNW 00:35:21 10° N
Cosmos 2297 Rocket 3.0 00:24:23 10° SW 00:29:44 47° NW 00:35:13 10° NNE
Cosmos 2219 3.3 00:27:36 19° SSW 00:31:38 70° ESE 00:37:15 10° NE
Cosmos 2084 Rocket 3.5 00:29:51 15° SW 00:33:22 72° NW 00:37:28 10° NE
Cosmos 2341 Rocket 4.3 00:28:16 15° S 00:33:26 61° E 00:39:34 10° NNE
Cosmos 1455 Rocket 3.2 00:30:10 10° NNW 00:34:35 63° W 00:37:36 20° S
ATLAS CENTAUR R/B 4.3 00:39:05 10° NNW 00:40:41 12° N 00:42:18 10° NNE
Aureole 1 Rocket 2.8 00:38:34 22° SSW 00:40:50 73° ESE 00:45:22 10° NNE
Cosmos 1825 3.8 00:42:47 12° WSW 00:44:58 20° WNW 00:47:38 10° NNW
ADEOS II 3.9 00:40:57 10° NE 00:45:05 23° E 00:49:11 10° SE
Cosmos 372 Rocket 4.4 00:42:35 17° S 00:46:32 57° ESE 00:51:39 10° NNE
Meteor 2-1 Rocket 4.3 00:42:03 10° NNW 00:47:59 80° W 00:53:19 13° S
Cosmos 923 Rocket 4.0 00:46:18 10° NNW 00:51:34 72° WSW 00:56:46 10° SSE
Cosmos 1025 Rocket 3.8 00:50:34 17° SW 00:53:37 41° WNW 00:57:44 10° N
Resurs 1-4 Rocket 3.0 00:53:01 10° NNE 00:58:03 42° E 01:03:02 10° S
BREEZE-M DEB (TANK) 3.1 00:54:10 10° W 00:58:06 23° SW 00:58:59 20° SSW
NOSS 3-2 (A) 3.3 00:56:57 16° SSW 01:01:15 73° SE 01:07:37 10° NE
Cosmos 1606 2.5 00:57:42 10° NNW 01:01:17 72° W 01:04:04 16° S
Cosmos 1937 Rocket 3.7 00:58:06 16° S 01:02:22 66° ESE 01:07:35 10° NNE
Cosmos 2263 Rocket 2.2 00:58:49 16° SSW 01:03:20 84° ESE 01:08:57 10° NNE
CZ-4C R/B 3.4 00:59:54 10° W 01:04:39 41° NNW 01:10:41 10° NE
Cosmos 1898 Rocket 3.5 01:01:19 16° SSW 01:05:29 89° ESE 01:10:42 10° NNE
COSMOS 2455 4.4 01:01:36 10° W 01:06:58 32° NNW 01:12:23 10° NNE
Orbus 7S? 2.8 01:04:25 10° WNW 01:07:04 54° SSW 01:10:52 10° SE
NOSS 3-2 (C) 4.0 01:03:08 14° S 01:07:19 42° ESE 01:13:08 10° NE
MOZ.5/SAFIR/RUBIN 5/SL-8 4.0 01:05:47 14° S 01:09:42 55° W 01:14:16 10° NNW
Cosmos 2218 Rocket 4.0 01:04:28 13° S 01:10:07 86° E 01:16:20 10° N
Helios 1A Rocket 3.9 01:12:04 16° SW 01:14:19 28° W 01:17:38 10° NW
BlueWalker 3 2.2 01:10:57 10° W 01:14:41 70° N 01:18:26 10° E
Cosmos 2366 rocket 4.0 01:11:40 13° SSW 01:17:23 83° WNW 01:23:39 10° N
Cosmos 1461 3.1 01:14:31 16° SSW 01:17:30 52° SE 01:21:19 10° NE
Iridium 921 4.4 01:14:40 14° S 01:17:33 84° E 01:21:02 10° N
Cosmos 1844 Rocket 4.1 01:18:38 10° SSE 01:23:25 30° ESE 01:28:13 10° NE
BREEZE-M DEB (TANK) 3.5 01:25:57 14° S 01:25:57 14° S 01:26:53 10° SSE
MSX 3.9 01:21:53 10° NNE 01:27:40 79° ESE 01:33:23 10° SSW
BREEZE-M R/B 4.5 01:21:45 10° W 01:31:51 73° SSW 01:37:34 10° ESE
Cosmos 1680 Rocket 3.9 01:28:51 10° NW 01:33:47 45° WSW 01:38:42 10° S
ALOS 3.7 01:29:58 10° NNE 01:34:08 32° E 01:38:15 10° SSE
Cosmos 1818 4.1 01:30:06 10° NW 01:35:09 39° WSW 01:40:10 10° S
Cosmos 2112 Rocket 4.2 01:30:57 10° NNW 01:35:58 50° WSW 01:40:56 10° S
SL-16 R/B 3.6 01:33:11 10° NW 01:37:18 21° W 01:41:09 11° SW
SL-16 R/B 2.8 01:33:03 10° SSE 01:39:18 77° ENE 01:45:32 10° NNW
Cosmos 1603 3.7 01:36:58 10° NNW 01:42:44 75° WSW 01:48:26 10° SSE
Cosmos 1869 4.4 01:40:47 10° NW 01:43:51 25° W 01:46:40 11° SW
COSMOS 2441 4.5 01:42:17 10° NNE 01:47:07 80° ESE 01:51:56 10° SSW
USA 234 3.5 01:41:05 10° ESE 01:47:38 76° NNE 01:54:10 10° WNW
Meteor 1-28 Rocket 3.1 01:45:59 10° SSE 01:49:30 85° ENE 01:53:05 10° NNW
IDEFIX/ARIANE 42P 2.8 01:44:42 10° N 01:49:54 63° WNW 01:55:03 10° SSW
Cosmos 2082 4.2 01:45:47 10° SW 01:51:17 53° NW 01:56:48 10° NNE
Cosmos 2228 3.8 01:47:39 10° NNW 01:51:38 36° W 01:55:34 10° SSW
Cosmos 1943 3.6 01:47:30 10° NW 01:52:47 43° WSW 01:58:02 10° S
Cosmos 2227 Rocket 3.8 01:49:16 10° W 01:54:03 27° NW 01:58:51 10° NNE
CZ-2C R/B 3.2 01:49:29 10° NNE 01:55:02 87° WNW 02:00:15 10° SSW
CZ-2C R/B 3.1 01:52:10 10° S 01:57:12 44° W 02:02:22 10° NNW
Cosmos 1437 Rocket 2.7 01:53:46 10° SSW 01:57:37 85° WNW 02:01:25 10° NNE
CZ-2D R/B 2.2 01:52:38 10° NNE 01:58:00 74° WNW 02:03:16 10° SSW
FENGYUN 3A 3.8 01:54:56 10° NNE 02:00:21 82° ESE 02:05:44 10° SSW
Cosmos 1727 Rocket 4.3 01:57:23 10° NNW 02:03:33 55° W 02:09:41 10° SSW
CENTAUR R/B 3.5 02:01:15 10° WSW 02:07:18 50° NNW 02:14:47 10° NE
H-2A R/B 4.1 02:04:05 10° N 02:07:49 39° WNW 02:11:32 10° SW
Envisat 4.4 02:04:37 10° NNE 02:09:18 36° E 02:13:58 10° SSE
Cosmos 1048 Rocket 4.0 02:05:40 10° NNW 02:10:52 72° WSW 02:16:06 10° SSE
USA 238 DEB 3.9 02:07:11 10° SSW 02:13:20 64° SE 02:20:05 10° NE
USA 238 3.9 02:07:13 10° SSW 02:13:22 64° SE 02:20:08 10° NE
NPP 4.3 02:09:14 10° N 02:14:20 44° WNW 02:19:25 10° SW
